Yokota AB current weather conditions

sailwx.info

Wind from 030 at 9 knots

Air temperature 2.0° C
Visibility: greater than 8.7 NM
Dewpoint -7.0° C

Last reported at 2016-Feb-07 08:58 UTC.
Time now 2016-Feb-07 10:39 UTC

Location: N 35°45' E 139°21'.
View on Google Maps.

See reports from other nearby stations

  
Tides and Currents Weather Stations Pressure Air Temp Water Temp Dewpoint Dewpoint Depression Visibility Wind Speed Wind Dir Waves Ship Positions
date/time (UTC)wind fromknots sea level pressurealtimeterstation pressurevisibilityair tempwater tempwave heightnotes
2016-Feb-07 08:58 030 9 8.7 2.0
2016-Feb-07 07:58 030 9 8.7 4.0
2016-Feb-07 06:58 050 10 8.7 7.0
2016-Feb-07 05:58 050 9 8.7 7.0
2016-Feb-07 04:58 040 11 8.7 7.0
2016-Feb-07 03:58 030 12 gusting 22 8.7 7.0
2016-Feb-07 02:58 030 14 8.7 6.0
2016-Feb-07 01:58 030 17 8.7 5.0
2016-Feb-07 00:58 040 17 8.7 4.0
2016-Feb-06 23:58 040 15 8.7 2.0
2016-Feb-06 22:58 020 4 5.2 1.0 Mist.
2016-Feb-06 22:32 340 4 4.3-0.0 Mist.
2016-Feb-06 22:16 2.6-1.0 Patches of fog.
2016-Feb-06 21:58 1.7-2.0 Patches of fog.
2016-Feb-06 21:36 1.7-0.0 Patches of fog.
2016-Feb-06 21:24 1.7-0.0 Patches of fog.
2016-Feb-06 21:15 2.6-0.0 Patches of fog.
2016-Feb-06 20:58 3.5-0.0 Mist.
2016-Feb-06 19:58 4.3-0.0 Mist.
2016-Feb-06 18:58 4.3-0.0 Mist.
2016-Feb-06 18:33 060 6 4.3-0.0 Mist.
2016-Feb-06 18:26 050 7 4.3-0.0 Mist.
2016-Feb-06 18:11 070 3 3.5-0.0 Light snow.
2016-Feb-06 18:06 060 5 3.5-0.0 Light snow.
2016-Feb-06 17:58 060 6 3.5-0.0 Light snow.
2016-Feb-06 16:58 030 5 5.2-0.0 Light snow. Mist.
2016-Feb-06 16:52 020 6 3.5-0.0 Light snow. Mist.
2016-Feb-06 16:30 030 7 2.6-0.0 Light snow. Mist.
2016-Feb-06 16:28 040 7 2.2-0.0 Light snow. Mist.
2016-Feb-06 16:22 030 7 2.2-0.0 Light snow. Mist.
2016-Feb-06 16:18 030 7 2.2-0.0 Light snow. Mist.
2016-Feb-06 16:16 020 8 2.6-0.0 Light snow. Mist.
2016-Feb-06 16:14 020 7 2.2-0.0 Light snow. Mist.
2016-Feb-06 16:04 020 9 2.6-0.0 Light snow. Mist.
2016-Feb-06 16:02 020 9 2.6-0.0 Light snow. Mist.
2016-Feb-06 15:58 020 10 2.6 1.0 Light snow. Mist.
2016-Feb-06 14:58 010 13 7.0 1.0 Light snow.
2016-Feb-06 14:54 010 11 7.0-0.0 Light snow.
2016-Feb-06 14:16 010 10 5.2-0.0 Light snow. Mist.
2016-Feb-06 13:58 010 12 7.8 1.0 Light snow.
2016-Feb-06 13:51 010 10 7.8 1.0 Light snow.
2016-Feb-06 13:43 360 11 8.7 2.0 Light snow.
2016-Feb-06 13:25 360 12 6.1 2.0 Precipitation.
2016-Feb-06 13:11 360 13 6.1 3.0 Precipitation.
2016-Feb-06 13:09 360 13 6.1 3.0 Precipitation.
2016-Feb-06 13:07 360 12 6.1 3.0 Precipitation.
2016-Feb-06 12:59 360 12 5.2 4.0 Precipitation. Mist.
2016-Feb-06 12:58 360 13 gusting 17 5.2 5.0 Precipitation. Mist.
2016-Feb-06 12:06 080 5 8.7 5.0 Light rain.
2016-Feb-06 12:02 080 7 8.7 5.0 Light rain.
2016-Feb-06 12:00 080 6 8.7 5.0 Light rain.
2016-Feb-06 11:58 080 7 8.7 5.0 Light rain.
2016-Feb-06 11:41 080 7 8.7 5.0 Light drizzle.
2016-Feb-06 11:39 080 7 8.7 5.0 Light drizzle.
2016-Feb-06 11:37 090 7 8.7 5.0 Light drizzle.
2016-Feb-06 11:33 090 7 8.7 5.0 Light drizzle.
2016-Feb-06 11:29 090 7 8.7 5.0 Light drizzle.
2016-Feb-06 11:24 080 4 8.7 5.0 Light rain.
2016-Feb-06 11:10 060 8 8.7 6.0 Precipitation.
2016-Feb-06 11:06 070 7 8.7 6.0
2016-Feb-06 10:58 070 9 8.7 6.0
2016-Feb-06 09:58 090 7 8.7 6.0
2016-Feb-06 08:58 070 5 8.7 7.0
2016-Feb-06 07:58 110 3 8.7 8.0
2016-Feb-06 06:58 140 6 8.7 8.0
2016-Feb-06 05:58 8.7 9.0
2016-Feb-06 04:58 8.7 9.0
2016-Feb-06 03:58 8.7 9.0
2016-Feb-06 02:58 080 5 8.7 8.0
2016-Feb-06 01:58 050 3 8.7 7.0
2016-Feb-06 00:58 8.7 6.0
2016-Feb-05 23:58 030 7 8.7 5.0
2016-Feb-05 22:58 040 4 8.7 5.0
2016-Feb-05 21:58 320 2 8.7 5.0
2016-Feb-05 20:58 340 3 8.7 4.0
2016-Feb-05 19:58 010 5 8.7 5.0
2016-Feb-05 18:58 360 6 8.7 5.0
2016-Feb-05 17:58 010 6 8.7 4.0
2016-Feb-05 16:58 340 6 8.7 5.0
2016-Feb-05 15:58 360 3 8.7 5.0
2016-Feb-05 14:58 330 5 8.7 5.0
2016-Feb-05 13:58 340 6 8.7 4.0
2016-Feb-05 12:58 020 3 8.7 5.0
2016-Feb-05 11:58 290 3 8.7 5.0
2016-Feb-05 10:58 8.7 6.0